{"data":{"norad_id":67090,"epoch":"2026-09-20T22:30:33.942240Z","epoch_age_seconds":40255,"freshness":"FRESH","line1":"1 67090U 25298R   26263.93789285  .00001759  00000+0  15514-3 0  9998","line2":"2 67090  69.9998 242.1636 0003507 270.2443  89.8315 14.98335223 42465","mean_motion":14.98335223,"eccentricity":0.0003507,"inclination_deg":69.9998,"raan_deg":242.1636,"arg_perigee_deg":270.2443,"mean_anomaly_deg":89.8315,"bstar":0.00015514,"rev_number":4246,"period_min":96.106664109304,"perigee_km":569.60231231221,"apogee_km":574.47716627715,"semimajor_km":6950.1767392947,"source":"CELESTRAK","updated_at":"2026-09-21T09:00:36.100571Z"}}